Weather History for KPSX - May, 2013

Change the Weather History Date:

Saturday, May 18, 2013

  Actual Average Record
Temperature  
Mean Temperature 82 °F -  
Max Temperature 87 °F 82 °F 89 °F (1946)
Min Temperature 77 °F 68 °F 54 °F (1945)
Cooling Degree Days 17    
Growing Degree Days 32 (Base 50)    
Moisture  
Dew Point 72 °F    
Average Humidity 77    
Maximum Humidity 89    
Minimum Humidity 58    
Precipitation  
Precipitation 0.00 in - - ()
Sea Level Pressure  
Sea Level Pressure 29.92 in    
Wind  
Wind Speed 15 mph (SSE)    
Max Wind Speed 21 mph    
Max Gust Speed 104 mph    
Visibility 8 miles    
Events      
Averages and records for this station are not official NWS values.
T = Trace of Precipitation, MM = Missing Value Source: NWS Daily Summary

Daily Weather History Graph

Daily Weather History Graph

Search for Another Location

Airport or City:

Trip Planner

Search our weather history database for the weather conditions in past years. The results will help you decide how hot, cold, wet, or windy it might be!

Date:

Astronomy

May. 18, 2013 Rise Set
Actual Time 6:32 AM CDT 8:11 PM CDT
Civil Twilight 6:06 AM CDT 8:37 PM CDT
Nautical Twilight 5:35 AM CDT 9:08 PM CDT
Astronomical Twilight 5:02 AM CDT 9:40 PM CDT
Moon 1:47 PM CDT (5/18) 1:51 AM CDT (5/18)
Length of Visible Light 14h 30m
Length of Day
13h 38m
First Quarter, 55% of the Moon is Illuminated
May 18
First Quarter
May 24
Full
May 31
Last Quarter
Jun 8
New
Jun 16
First Quarter

Hourly Weather History & Observations

Time (CDT) Temp. Heat Index Dew Point Humidity Pressure Visibility Wind Dir Wind Speed Gust Speed Precip Events Conditions
12:39 AM 78.8 °F - 73.4 °F 83% 29.94 in 7.0 mi South 12.7 mph - N/A   Overcast
12:53 AM 78.1 °F - 73.0 °F 84% 29.93 in 7.0 mi SSE 15.0 mph 20.7 mph N/A   Overcast
1:11 AM 78.8 °F - 73.4 °F 83% 29.92 in 7.0 mi South 9.2 mph 103.6 mph N/A   Squalls
1:28 AM 78.8 °F - 73.4 °F 83% 29.92 in 7.0 mi South 16.1 mph - N/A   Overcast
1:53 AM 78.1 °F - 73.0 °F 84% 29.92 in 6.0 mi South 16.1 mph 23.0 mph N/A   Haze
2:53 AM 78.1 °F - 73.0 °F 84% 29.89 in 6.0 mi South 13.8 mph 21.9 mph N/A   Haze
3:53 AM 78.1 °F - 73.0 °F 84% 29.91 in 6.0 mi South 13.8 mph - N/A   Haze
4:53 AM 78.1 °F - 73.0 °F 84% 29.90 in 6.0 mi South 15.0 mph 21.9 mph N/A   Haze
5:53 AM 78.1 °F - 73.0 °F 84% 29.91 in 6.0 mi South 13.8 mph 21.9 mph N/A   Haze
6:53 AM 77.0 °F - 73.0 °F 88% 29.92 in 7.0 mi SSE 11.5 mph - N/A   Overcast
7:29 AM 77.0 °F - 73.4 °F 89% 29.93 in 5.0 mi SSE 13.8 mph - N/A   Overcast
7:53 AM 78.1 °F - 72.0 °F 81% 29.94 in 5.0 mi SSE 15.0 mph 21.9 mph N/A   Haze
8:53 AM 79.0 °F - 72.0 °F 79% 29.95 in 6.0 mi SSE 13.8 mph - N/A   Haze
9:14 AM 80.6 °F 84.6 °F 71.6 °F 74% 29.95 in 8.0 mi SSE 17.3 mph 21.9 mph N/A   Mostly Cloudy
9:23 AM 80.6 °F 84.6 °F 71.6 °F 74% 29.95 in 8.0 mi South 15.0 mph - N/A   Scattered Clouds
9:53 AM 81.0 °F 85.2 °F 72.0 °F 74% 29.94 in 10.0 mi South 15.0 mph 24.2 mph N/A   Clear
10:53 AM 82.9 °F 88.0 °F 72.0 °F 69% 29.96 in 10.0 mi South 17.3 mph 23.0 mph N/A   Clear
11:53 AM 84.0 °F 88.4 °F 70.0 °F 63% 29.96 in 10.0 mi SSE 19.6 mph - N/A   Clear
12:53 PM 86.0 °F 90.7 °F 70.0 °F 59% 29.94 in 10.0 mi SSE 18.4 mph - N/A   Clear
1:53 PM 86.0 °F 90.4 °F 69.8 °F 58% 29.93 in 10.0 mi SSE 17.3 mph 23.0 mph N/A   Clear
2:53 PM 87.1 °F 92.8 °F 71.1 °F 59% 29.91 in 10.0 mi SSE 18.4 mph 26.5 mph N/A   Clear
3:53 PM 86.0 °F 90.7 °F 70.0 °F 59% 29.91 in 10.0 mi SSE 18.4 mph - N/A   Clear
4:53 PM 82.9 °F 87.5 °F 71.1 °F 67% 29.90 in 10.0 mi South 16.1 mph 24.2 mph N/A   Clear
5:53 PM 82.0 °F 86.3 °F 71.1 °F 69% 29.90 in 10.0 mi SSE 12.7 mph - N/A   Clear
6:53 PM 81.0 °F 85.2 °F 72.0 °F 74% 29.90 in 9.0 mi SE 15.0 mph - N/A   Clear
7:53 PM 79.0 °F - 72.0 °F 79% 29.89 in 8.0 mi SE 15.0 mph - N/A   Scattered Clouds
8:39 PM 78.8 °F - 73.4 °F 83% 29.90 in 9.0 mi SE 15.0 mph - N/A   Mostly Cloudy
8:53 PM 78.1 °F - 73.0 °F 84% 29.90 in 9.0 mi SE 16.1 mph - N/A   Mostly Cloudy
9:53 PM 78.1 °F - 73.0 °F 84% 29.89 in 9.0 mi SE 19.6 mph - N/A   Mostly Cloudy
10:53 PM 78.1 °F - 72.0 °F 81% 29.90 in 9.0 mi SSE 18.4 mph 26.5 mph N/A   Mostly Cloudy
11:53 PM 78.8 °F - 71.6 °F 78% 29.91 in 10.0 mi SSE 20.7 mph 25.3 mph N/A   Overcast